Regional Weather Roundup
Issued by NWS

Home | Current Version | Previous Version | Graphics & Text | Print | Product List | Glossary On
Versions: 1 2 3 4 5 6 7 8 9 10 11 12 13 14 15 16 17 18 19 20 21 22 23 24 25 26 27 28 29 30 31 32 33 34 35 36 37 38 39 40 41 42 43 44 45 46 47 48 49 50
000
ASUS43 KOAX 030302
RWRNE

WEATHER ROUNDUP FOR NEBRASKA
NATIONAL WEATHER SERVICE OMAHA NE
1000 PM CDT WED SEP 02 2015

NOTES: SATELLITE DATA IS BEING USED TO AUGMENT CLOUD COVER ABOVE
       12000 FEET.
       "FAIR" INDICATES FEW OR NO CLOUDS BELOW 12,000 FEET WITH NO
       SIGNIFICANT WEATHER AND/OR OBSTRUCTIONS TO VISIBILITY.

  * THESE STATIONS DO NOT REPORT WEATHER SUCH AS RAIN...SNOW OR FOG.

NEZ001>004-019>022-054>056-030400-
NEBRASKA PANHANDLE

CITY           SKY/WX    TMP DP  RH WIND       PRES   REMARKS
SCOTTSBLUFF    PTCLDY    71  55  56 E3        29.90R
ALLIANCE       CLEAR     71  46  40 SE8       29.90R
CHADRON        CLEAR     77  44  30 S8        29.82R
KIMBALL        PTCLDY    67  46  46 S7        29.98R
SIDNEY         CLEAR     65  41  41 SW7       29.96R
$$

NEZ057>060-069>072-079>082-030400-
SOUTHWEST NEBRASKA

CITY           SKY/WX    TMP DP  RH WIND       PRES   REMARKS
NORTH PLATTE   CLEAR     70  66  87 E8        29.87R
IMPERIAL       PTCLDY    75  56  51 E3        29.88R
LEXINGTON      CLEAR     75  67  77 SE5       29.85S
MC COOK        CLEAR     79  60  52 E7        29.84R
OGALLALA       CLEAR     78  56  45 E3        29.88R
$$

NEZ005>010-023>029-035>040-094-030400-
NORTH CENTRAL NEBRASKA

CITY           SKY/WX    TMP DP  RH WIND       PRES   REMARKS
VALENTINE      PTCLDY    83  57  41 S12       29.82R
AINSWORTH      CLEAR     79  58  47 S9        29.85R
BROKEN BOW     CLEAR     69  65  86 CALM      29.87R
O`NEILL        CLEAR     79  70  74 SE8       29.84R
ORD            CLEAR     73  66  78 CALM      29.84R
THEDFORD       CLEAR     80  62  53 S8        29.87R
$$

NEZ041-046>049-061>064-073>077-083>087-030400-
SOUTH CENTRAL NEBRASKA

CITY           SKY/WX    TMP DP  RH WIND       PRES   REMARKS
GRAND ISLAND   CLEAR     78  67  68 SE6       29.86R
AURORA         CLEAR     75  69  82 SE6       29.86R
HASTINGS       CLEAR     82  64  54 S10       29.85R
HEBRON         CLEAR     81  63  54 S9        29.85R
HOLDREGE       CLEAR     76  64  68 E9        29.85R
KEARNEY *      CLEAR     75  63  64 SE7       29.85R
YORK           CLEAR     77  68  73 S6        29.86R
$$

NEZ011>018-030>034-042>045-030400-
NORTHEAST NEBRASKA

CITY           SKY/WX    TMP DP  RH WIND       PRES   REMARKS
NORFOLK        CLEAR     75  72  90 SE8       29.84R
ALBION         CLEAR     74  68  82 SE5       29.86R
BLAIR          FAIR      78  69  74 S9        29.88R
COLUMBUS *     CLEAR     79  66  65 SE5       29.85S
FREMONT        CLEAR     80  70  72 SE6       29.87R
TEKAMAH        CLEAR     76  73  91 S3        29.85R
$$

NEZ050>053-065>068-078-088>093-030400-
SOUTHEAST NEBRASKA

CITY           SKY/WX    TMP DP  RH WIND       PRES   REMARKS
LINCOLN        CLEAR     81  68  64 S9        29.86R
OMAHA EPPLEY   PTCLDY    82  71  69 S13       29.87R
BEATRICE       CLEAR     82  67  61 S12G17    29.86R
FALLS CITY     CLEAR     77  70  79 SE9       29.90R
NEBRASKA CITY  PTCLDY    78  64  61 S10       29.89R
PLATTSMOUTH    PTCLDY    78  67  69 S10       29.89R
$$

NEZ044-045-051>053-067-030400-
OMAHA AREA

CITY           SKY/WX    TMP DP  RH WIND       PRES   REMARKS
EPPLEY FIELD   PTCLDY    82  71  69 S13       29.87R
BLAIR          CLEAR     78  69  74 S9        29.88R
FREMONT        CLEAR     80  70  72 SE6       29.87R
MILLARD        PTCLDY    80  72  77 SE3       29.87R
OFFUTT AFB     FAIR      78  70  77 SE10      29.87R
PLATTSMOUTH    PTCLDY    78  67  69 S10       29.89R
WAHOO          FAIR      75  70  84 SE7       29.86R
$$


USA.gov is the U.S. government's official web portal to all federal, state and local government web resources and services.